QPF
0.09 0.08 0.06 0.09 0.08 0.08 0.09 0.07 0.07 0.15 0.18 0.12 0.09 0.07 0.05 0.04 0.05 0.07 0.09 0.08 0.05 0.05 0.06 0.06 0.08 0.07 0.07 0.07 0.10 0.12 0.14 0.16 0.18 0.17 0.15 0.15 0.14 0.12 0.09 0.08 0.07 0.06 0.06
0.09 0.09 0.07 0.06 0.05 0.05 0.06 0.05 0.05 0.08 0.11 0.11 0.07 0.05 0.05 0.04 0.05 0.05 0.07 0.08 0.05 0.04 0.04 0.06 0.07 0.07 0.05 0.05 0.07 0.09 0.11 0.13 0.15 0.16 0.19 0.21 0.20 0.15 0.11 0.08 0.07 0.05 0.05
0.07 0.06 0.06 0.06 0.05 0.04 0.05 0.04 0.05 0.06 0.06 0.06 0.05 0.05 0.06 0.06 0.05 0.06 0.07 0.07 0.07 0.06 0.04 0.05 0.06 0.07 0.06 0.06 0.05 0.06 0.09 0.14 0.17 0.19 0.20 0.22 0.22 0.18 0.13 0.09 0.07 0.05 0.05
0.04 0.05 0.05 0.06 0.06 0.04 0.06 0.05 0.05 0.05 0.06 0.06 0.05 0.05 0.06 0.05 0.05 0.05 0.05 0.05 0.05 0.06 0.05 0.04 0.06 0.06 0.06 0.05 0.05 0.07 0.12 0.18 0.22 0.21 0.18 0.18 0.19 0.18 0.16 0.12 0.09 0.07 0.05
0.04 0.04 0.04 0.05 0.06 0.06 0.08 0.07 0.06 0.07 0.06 0.06 0.05 0.05 0.04 0.03 0.04 0.04 0.04 0.03 0.03 0.04 0.05 0.04 0.05 0.05 0.06 0.06 0.06 0.11 0.17 0.23 0.23 0.19 0.16 0.13 0.13 0.12 0.12 0.12 0.11 0.10 0.07
0.06 0.07 0.07 0.06 0.06 0.08 0.07 0.07 0.07 0.07 0.08 0.07 0.04 0.04 0.04 0.03 0.03 0.03 0.03 0.02 0.03 0.02 0.05 0.08 0.11 0.06 0.05 0.04 0.05 0.08 0.12 0.11 0.09 0.06 0.06 0.05 0.06 0.07 0.08 0.10 0.11 0.12 0.10
0.08 0.10 0.09 0.08 0.08 0.06 0.05 0.06 0.07 0.07 0.08 0.08 0.06 0.05 0.03 0.02 0.02 0.02 0.02 0.02 0.02 0.03 0.06 0.08 0.10 0.09 0.07 0.05 0.04 0.03 0.04 0.04 0.04 0.04 0.04 0.03 0.04 0.05 0.05 0.05 0.05 0.07 0.08
0.06 0.07 0.08 0.07 0.06 0.05 0.04 0.05 0.06 0.06 0.07 0.09 0.08 0.06 0.05 0.04 0.03 0.02 0.02 0.02 0.02 0.04 0.05 0.05 0.07 0.07 0.06 0.07 0.04 0.03 0.02 0.04 0.04 0.05 0.05 0.04 0.04 0.04 0.04 0.04 0.04 0.04 0.04
0.04 0.05 0.06 0.06 0.06 0.05 0.06 0.07 0.07 0.06 0.06 0.07 0.08 0.08 0.07 0.07 0.06 0.04 0.02 0.01 0.02 0.02 0.03 0.03 0.03 0.04 0.04 0.05 0.05 0.03 0.03 0.04 0.05 0.04 0.04 0.03 0.04 0.03 0.03 0.03 0.04 0.04 0.05
0.03 0.03 0.03 0.04 0.04 0.05 0.06 0.06 0.06 0.06 0.06 0.05 0.06 0.06 0.06 0.07 0.06 0.06 0.05 0.03 0.02 0.02 0.02 0.02 0.01 0.02 0.03 0.04 0.05 0.04 0.04 0.05 0.05 0.06 0.06 0.04 0.04 0.04 0.04 0.04 0.04 0.04 0.06
0.02 0.02 0.02 0.03 0.03 0.03 0.04 0.05 0.06 0.06 0.05 0.04 0.05 0.05 0.06 0.07 0.07 0.06 0.05 0.05 0.04 0.04 0.02 0.02 0.02 0.02 0.02 0.04 0.06 0.05 0.04 0.03 0.03 0.03 0.04 0.06 0.06 0.05 0.05 0.05 0.05 0.06 0.07
0.02 0.02 0.02 0.02 0.02 0.02 0.03 0.04 0.04 0.05 0.05 0.05 0.05 0.05 0.06 0.06 0.07 0.07 0.06 0.08 0.08 0.06 0.04 0.03 0.03 0.03 0.02 0.03 0.04 0.06 0.04 0.03 0.03 0.02 0.02 0.04 0.07 0.09 0.09 0.08 0.07 0.08 0.09
0.02 0.02 0.02 0.02 0.02 0.02 0.02 0.02 0.03 0.04 0.04 0.05 0.04 0.05 0.06 0.06 0.06 0.07 0.09 0.09 0.08 0.06 0.06 0.04 0.02 0.03 0.03 0.04 0.06 0.06 0.05 0.03 0.03 0.03 0.02 0.02 0.03 0.05 0.07 0.08 0.09 0.08 0.10
0.01 0.01 0.01 0.02 0.02 0.02 0.02 0.03 0.03 0.03 0.04 0.05 0.04 0.06 0.07 0.07 0.06 0.06 0.07 0.08 0.08 0.06 0.04 0.03 0.02 0.02 0.02 0.04 0.06 0.06 0.04 0.03 0.04 0.03 0.02 0.02 0.02 0.02 0.03 0.05 0.07 0.08 0.11
0.01 0.01 0.02 0.02 0.03 0.05 0.06 0.05 0.04 0.05 0.05 0.05 0.05 0.06 0.06 0.07 0.06 0.06 0.06 0.07 0.09 0.08 0.05 0.02 0.01 0.01 0.02 0.04 0.06 0.04 0.03 0.03 0.02 0.01 0.01 0.01 0.02 0.02 0.02 0.03 0.04 0.06 0.07
0.01 0.01 0.01 0.02 0.04 0.05 0.07 0.09 0.08 0.08 0.08 0.06 0.05 0.05 0.05 0.05 0.06 0.06 0.06 0.07 0.09 0.09 0.05 0.02 0.02 0.01 0.02 0.03 0.05 0.04 0.03 0.03 0.02 0.01 0.01 0.01 0.01 0.02 0.01 0.02 0.03 0.05 0.06
0.02 0.01 0.02 0.03 0.04 0.04 0.05 0.08 0.09 0.10 0.10 0.08 0.06 0.05 0.04 0.05 0.05 0.07 0.07 0.07 0.07 0.06 0.06 0.03 0.03 0.02 0.04 0.05 0.06 0.06 0.05 0.04 0.02 0.01 0.01 0.01 0.01 0.01 0.01 0.02 0.03 0.04 0.04
0.02 0.02 0.02 0.02 0.02 0.03 0.04 0.06 0.07 0.07 0.07 0.07 0.06 0.06 0.04 0.05 0.07 0.08 0.09 0.09 0.08 0.08 0.07 0.04 0.03 0.02 0.03 0.04 0.08 0.09 0.06 0.05 0.04 0.03 0.03 0.03 0.03 0.02 0.02 0.02 0.03 0.03 0.04
0.02 0.02 0.03 0.03 0.03 0.03 0.03 0.03 0.05 0.08 0.08 0.08 0.07 0.07 0.06 0.07 0.07 0.09 0.10 0.10 0.09 0.08 0.08 0.06 0.04 0.04 0.03 0.02 0.04 0.05 0.06 0.06 0.04 0.03 0.04 0.04 0.04 0.03 0.03 0.03 0.03 0.03 0.03
0.02 0.03 0.04 0.04 0.04 0.03 0.03 0.03 0.04 0.05 0.09 0.10 0.10 0.09 0.07 0.07 0.07 0.08 0.07 0.07 0.07 0.08 0.08 0.08 0.06 0.04 0.04 0.03 0.04 0.04 0.05 0.06 0.05 0.04 0.05 0.05 0.05 0.04 0.04 0.04 0.04 0.03 0.03
0.01 0.02 0.02 0.02 0.02 0.02 0.02 0.03 0.03 0.03 0.05 0.06 0.07 0.07 0.07 0.06 0.05 0.05 0.04 0.04 0.05 0.05 0.05 0.05 0.04 0.04 0.04 0.04 0.04 0.03 0.05 0.05 0.05 0.04 0.06 0.05 0.05 0.05 0.06 0.05 0.04 0.03 0.02
0.01 0.01 0.01 0.02 0.02 0.02 0.03 0.02 0.01 0.02 0.03 0.03 0.03 0.04 0.03 0.05 0.05 0.04 0.03 0.03 0.03 0.03 0.03 0.03 0.03 0.02 0.03 0.04 0.04 0.03 0.04 0.04 0.04 0.04 0.06 0.05 0.05 0.06 0.09 0.06 0.04 0.02 0.02
0.01 0.01 0.01 0.01 0.02 0.03 0.03 0.02 0.02 0.02 0.02 0.02 0.03 0.03 0.03 0.03 0.04 0.04 0.04 0.04 0.03 0.03 0.03 0.04 0.03 0.02 0.03 0.03 0.05 0.04 0.05 0.05 0.05 0.05 0.06 0.06 0.05 0.05 0.06 0.05 0.03 0.02 0.02
0.01 0.01 0.01 0.02 0.02 0.03 0.04 0.03 0.02 0.01 0.01 0.02 0.03 0.04 0.04 0.05 0.05 0.05 0.05 0.04 0.04 0.03 0.04 0.04 0.04 0.03 0.04 0.05 0.05 0.05 0.05 0.05 0.05 0.06 0.07 0.06 0.05 0.05 0.05 0.04 0.03 0.03 0.02
0.02 0.03 0.03 0.03 0.03 0.03 0.04 0.04 0.03 0.02 0.02 0.01 0.02 0.02 0.02 0.03 0.02 0.02 0.02 0.02 0.02 0.02 0.01 0.03 0.03 0.03 0.03 0.03 0.05 0.05 0.04 0.04 0.04 0.07 0.08 0.07 0.07 0.06 0.06 0.06 0.03 0.03 0.04
0.03 0.03 0.03 0.03 0.03 0.03 0.03 0.02 0.02 0.02 0.02 0.02 0.02 0.02 0.01 0.01 0.01 0.01 0.01 0.01 0.01 0.01 0.01 0.01 0.02 0.02 0.02 0.03 0.05 0.06 0.06 0.06 0.07 0.06 0.04 0.05 0.04 0.04 0.05 0.06 0.04 0.03 0.02
MSLP
1014.03 1014.43 1014.74 1014.99 1015.23 1015.48 1015.73 1015.95 1016.12 1016.21 1016.19 1016.09 1015.96 1015.84 1015.81 1015.90 1016.14 1016.51 1016.97 1017.45 1017.89 1018.24 1018.47 1018.59 1018.62 1018.60 1018.58 1018.58 1018.61 1018.66 1018.73 1018.79 1018.82 1018.83 1018.82 1018.79 1018.78 1018.77 1018.77 1018.78 1018.78 1018.74 1018.67
1014.12 1014.51 1014.80 1015.04 1015.27 1015.50 1015.75 1015.98 1016.16 1016.28 1016.30 1016.24 1016.14 1016.03 1015.97 1016.00 1016.15 1016.42 1016.76 1017.14 1017.50 1017.81 1018.05 1018.20 1018.28 1018.33 1018.35 1018.38 1018.41 1018.45 1018.48 1018.49 1018.48 1018.45 1018.41 1018.38 1018.36 1018.35 1018.36 1018.36 1018.35 1018.31 1018.23
1014.13 1014.51 1014.80 1015.05 1015.29 1015.55 1015.81 1016.07 1016.28 1016.44 1016.50 1016.48 1016.40 1016.28 1016.19 1016.15 1016.19 1016.32 1016.52 1016.77 1017.03 1017.27 1017.47 1017.63 1017.76 1017.85 1017.93 1018.00 1018.05 1018.09 1018.10 1018.08 1018.04 1017.98 1017.92 1017.87 1017.84 1017.83 1017.83 1017.84 1017.82 1017.78 1017.69
1014.08 1014.46 1014.77 1015.05 1015.33 1015.61 1015.91 1016.19 1016.45 1016.64 1016.74 1016.75 1016.68 1016.56 1016.43 1016.31 1016.24 1016.23 1016.28 1016.37 1016.49 1016.63 1016.78 1016.92 1017.05 1017.18 1017.30 1017.41 1017.50 1017.55 1017.57 1017.55 1017.49 1017.41 1017.34 1017.27 1017.23 1017.21 1017.20 1017.20 1017.19 1017.14 1017.06
1014.03 1014.41 1014.74 1015.05 1015.36 1015.68 1016.01 1016.33 1016.60 1016.82 1016.95 1016.99 1016.94 1016.82 1016.66 1016.48 1016.31 1016.17 1016.07 1016.01 1015.98 1015.99 1016.03 1016.11 1016.22 1016.36 1016.50 1016.65 1016.77 1016.86 1016.90 1016.90 1016.85 1016.77 1016.68 1016.61 1016.55 1016.52 1016.50 1016.48 1016.46 1016.40 1016.32
1013.99 1014.36 1014.71 1015.06 1015.40 1015.75 1016.09 1016.42 1016.71 1016.94 1017.09 1017.15 1017.12 1017.02 1016.86 1016.65 1016.42 1016.19 1015.95 1015.74 1015.56 1015.42 1015.34 1015.32 1015.36 1015.46 1015.61 1015.77 1015.93 1016.06 1016.14 1016.17 1016.15 1016.09 1016.01 1015.93 1015.86 1015.80 1015.76 1015.72 1015.67 1015.60 1015.50
1013.98 1014.34 1014.71 1015.07 1015.43 1015.79 1016.14 1016.46 1016.75 1016.97 1017.13 1017.22 1017.23 1017.17 1017.04 1016.85 1016.60 1016.31 1015.98 1015.65 1015.32 1015.03 1014.80 1014.64 1014.58 1014.61 1014.72 1014.87 1015.05 1015.22 1015.35 1015.43 1015.45 1015.42 1015.36 1015.28 1015.20 1015.12 1015.04 1014.96 1014.88 1014.78 1014.66
1014.01 1014.36 1014.72 1015.09 1015.46 1015.82 1016.15 1016.46 1016.72 1016.93 1017.10 1017.21 1017.27 1017.27 1017.20 1017.06 1016.85 1016.54 1016.17 1015.75 1015.30 1014.86 1014.47 1014.17 1013.97 1013.90 1013.93 1014.05 1014.23 1014.42 1014.60 1014.73 1014.80 1014.82 1014.78 1014.71 1014.62 1014.51 1014.39 1014.27 1014.14 1014.00 1013.84
1014.08 1014.41 1014.76 1015.13 1015.49 1015.84 1016.15 1016.42 1016.65 1016.85 1017.01 1017.15 1017.26 1017.33 1017.35 1017.30 1017.15 1016.88 1016.50 1016.02 1015.48 1014.92 1014.38 1013.92 1013.58 1013.39 1013.33 1013.39 1013.54 1013.74 1013.94 1014.12 1014.24 1014.30 1014.30 1014.24 1014.13 1014.00 1013.84 1013.67 1013.50 1013.31 1013.12
1014.17 1014.48 1014.83 1015.18 1015.54 1015.86 1016.15 1016.38 1016.58 1016.75 1016.91 1017.06 1017.22 1017.37 1017.47 1017.51 1017.44 1017.24 1016.89 1016.40 1015.80 1015.14 1014.49 1013.89 1013.42 1013.09 1012.92 1012.91 1013.01 1013.20 1013.41 1013.62 1013.77 1013.86 1013.88 1013.84 1013.73 1013.58 1013.39 1013.19 1012.97 1012.74 1012.51
1014.27 1014.56 1014.90 1015.26 1015.61 1015.92 1016.18 1016.38 1016.54 1016.67 1016.81 1016.97 1017.15 1017.35 1017.53 1017.65 1017.67 1017.53 1017.23 1016.76 1016.15 1015.44 1014.70 1014.01 1013.42 1012.98 1012.71 1012.61 1012.65 1012.80 1013.00 1013.20 1013.37 1013.48 1013.51 1013.47 1013.37 1013.21 1013.01 1012.78 1012.53 1012.28 1012.02
1014.34 1014.63 1014.98 1015.34 1015.69 1016.00 1016.24 1016.41 1016.53 1016.63 1016.73 1016.87 1017.05 1017.26 1017.48 1017.66 1017.74 1017.68 1017.43 1017.01 1016.41 1015.70 1014.93 1014.19 1013.52 1013.00 1012.65 1012.47 1012.44 1012.52 1012.68 1012.85 1013.01 1013.11 1013.14 1013.10 1013.00 1012.83 1012.63 1012.40 1012.15 1011.89 1011.62
1014.37 1014.67 1015.03 1015.42 1015.78 1016.09 1016.32 1016.47 1016.56 1016.61 1016.66 1016.75 1016.90 1017.09 1017.31 1017.51 1017.63 1017.62 1017.43 1017.07 1016.53 1015.85 1015.11 1014.36 1013.67 1013.11 1012.70 1012.44 1012.34 1012.35 1012.44 1012.56 1012.66 1012.73 1012.73 1012.68 1012.57 1012.41 1012.22 1012.00 1011.76 1011.50 1011.25
1014.35 1014.68 1015.07 1015.47 1015.86 1016.18 1016.41 1016.54 1016.59 1016.59 1016.59 1016.61 1016.69 1016.83 1017.02 1017.20 1017.33 1017.35 1017.22 1016.93 1016.47 1015.87 1015.20 1014.50 1013.84 1013.27 1012.83 1012.52 1012.35 1012.27 1012.27 1012.30 1012.33 1012.33 1012.29 1012.21 1012.08 1011.92 1011.74 1011.53 1011.32 1011.09 1010.86
1014.29 1014.65 1015.06 1015.50 1015.90 1016.23 1016.46 1016.59 1016.61 1016.56 1016.50 1016.45 1016.45 1016.52 1016.64 1016.78 1016.90 1016.94 1016.86 1016.64 1016.27 1015.79 1015.21 1014.60 1014.00 1013.47 1013.02 1012.68 1012.44 1012.28 1012.18 1012.11 1012.04 1011.95 1011.84 1011.71 1011.55 1011.38 1011.20 1011.02 1010.82 1010.63 1010.42
1014.21 1014.59 1015.02 1015.47 1015.89 1016.23 1016.47 1016.58 1016.58 1016.50 1016.39 1016.28 1016.21 1016.20 1016.25 1016.34 1016.43 1016.47 1016.43 1016.29 1016.02 1015.65 1015.19 1014.69 1014.19 1013.71 1013.28 1012.92 1012.63 1012.38 1012.18 1011.99 1011.81 1011.62 1011.42 1011.22 1011.02 1010.83 1010.64 1010.46 1010.29 1010.12 1009.93
1014.12 1014.51 1014.95 1015.40 1015.82 1016.16 1016.40 1016.51 1016.50 1016.41 1016.26 1016.11 1015.99 1015.92 1015.91 1015.95 1016.02 1016.06 1016.05 1015.97 1015.80 1015.54 1015.20 1014.81 1014.39 1013.98 1013.58 1013.21 1012.88 1012.56 1012.26 1011.97 1011.68 1011.38 1011.10 1010.82 1010.57 1010.33 1010.12 1009.93 1009.76 1009.59 1009.42
1014.05 1014.43 1014.85 1015.28 1015.69 1016.02 1016.25 1016.37 1016.37 1016.28 1016.13 1015.97 1015.82 1015.73 1015.69 1015.70 1015.74 1015.78 1015.80 1015.76 1015.66 1015.48 1015.24 1014.95 1014.61 1014.25 1013.89 1013.52 1013.15 1012.78 1012.40 1012.02 1011.64 1011.26 1010.90 1010.55 1010.23 1009.95 1009.70 1009.48 1009.29 1009.11 1008.93
1013.99 1014.34 1014.73 1015.13 1015.51 1015.82 1016.05 1016.17 1016.19 1016.13 1016.01 1015.86 1015.73 1015.63 1015.58 1015.58 1015.61 1015.65 1015.68 1015.67 1015.61 1015.49 1015.31 1015.08 1014.80 1014.48 1014.14 1013.77 1013.39 1012.98 1012.56 1012.13 1011.69 1011.25 1010.83 1010.43 1010.06 1009.72 1009.43 1009.16 1008.93 1008.71 1008.50
1013.94 1014.26 1014.60 1014.96 1015.30 1015.59 1015.81 1015.94 1015.99 1015.97 1015.89 1015.79 1015.70 1015.63 1015.59 1015.59 1015.61 1015.65 1015.67 1015.66 1015.61 1015.51 1015.36 1015.15 1014.90 1014.60 1014.28 1013.92 1013.53 1013.12 1012.69 1012.24 1011.78 1011.32 1010.87 1010.43 1010.03 1009.65 1009.31 1008.99 1008.71 1008.44 1008.18
1013.89 1014.17 1014.47 1014.78 1015.09 1015.35 1015.57 1015.71 1015.79 1015.81 1015.79 1015.75 1015.70 1015.67 1015.66 1015.66 1015.68 1015.70 1015.70 1015.67 1015.60 1015.49 1015.33 1015.12 1014.87 1014.58 1014.26 1013.91 1013.54 1013.15 1012.74 1012.31 1011.87 1011.43 1010.98 1010.55 1010.12 1009.71 1009.33 1008.96 1008.61 1008.28 1007.97
1013.81 1014.07 1014.34 1014.62 1014.90 1015.15 1015.35 1015.51 1015.62 1015.68 1015.71 1015.72 1015.72 1015.72 1015.73 1015.74 1015.75 1015.74 1015.71 1015.64 1015.54 1015.38 1015.19 1014.95 1014.69 1014.39 1014.08 1013.75 1013.41 1013.06 1012.70 1012.32 1011.93 1011.54 1011.13 1010.71 1010.29 1009.87 1009.44 1009.03 1008.62 1008.23 1007.85
1013.72 1013.97 1014.23 1014.50 1014.76 1015.00 1015.21 1015.37 1015.50 1015.60 1015.66 1015.70 1015.73 1015.76 1015.77 1015.78 1015.76 1015.73 1015.65 1015.54 1015.38 1015.19 1014.95 1014.69 1014.40 1014.10 1013.80 1013.50 1013.19 1012.89 1012.59 1012.29 1011.97 1011.63 1011.28 1010.90 1010.49 1010.06 1009.61 1009.15 1008.69 1008.23 1007.79
1013.60 1013.87 1014.15 1014.43 1014.69 1014.94 1015.15 1015.32 1015.46 1015.57 1015.64 1015.70 1015.74 1015.76 1015.76 1015.75 1015.71 1015.64 1015.52 1015.37 1015.17 1014.94 1014.67 1014.39 1014.09 1013.79 1013.50 1013.22 1012.97 1012.72 1012.48 1012.25 1012.00 1011.72 1011.42 1011.07 1010.68 1010.25 1009.78 1009.28 1008.76 1008.25 1007.74
1013.47 1013.79 1014.11 1014.41 1014.70 1014.96 1015.19 1015.37 1015.51 1015.61 1015.68 1015.72 1015.74 1015.74 1015.72 1015.68 1015.61 1015.50 1015.36 1015.18 1014.96 1014.71 1014.43 1014.14 1013.85 1013.56 1013.29 1013.05 1012.82 1012.62 1012.44 1012.25 1012.05 1011.83 1011.56 1011.24 1010.85 1010.41 1009.91 1009.38 1008.81 1008.24 1007.68
1013.36 1013.73 1014.10 1014.45 1014.78 1015.06 1015.30 1015.48 1015.62 1015.71 1015.76 1015.77 1015.76 1015.73 1015.67 1015.59 1015.49 1015.36 1015.21 1015.02 1014.80 1014.56 1014.30 1014.03 1013.76 1013.50 1013.25 1013.03 1012.84 1012.66 1012.50 1012.34 1012.16 1011.96 1011.70 1011.38 1010.99 1010.53 1010.01 1009.43 1008.83 1008.21 1007.60
Thickness
5796 5796 5795 5794 5794 5794 5793 5792 5792 5791 5790 5789 5788 5787 5785 5784 5783 5781 5779 5778 5776 5774 5772 5771 5769 5767 5765 5763 5762 5761 5759 5757 5755 5753 5752 5749 5748 5746 5744 5742 5740 5739 5737
5796 5795 5794 5794 5794 5794 5793 5792 5791 5790 5789 5788 5787 5786 5785 5784 5782 5781 5779 5777 5776 5774 5773 5771 5769 5767 5766 5764 5763 5761 5760 5758 5757 5755 5752 5750 5748 5746 5745 5743 5741 5739 5738
5796 5795 5794 5793 5793 5793 5792 5791 5790 5790 5789 5788 5786 5786 5786 5784 5782 5781 5779 5778 5776 5775 5773 5771 5770 5768 5766 5765 5764 5762 5760 5759 5757 5755 5752 5750 5748 5746 5745 5742 5740 5739 5737
5797 5795 5794 5793 5793 5793 5792 5791 5789 5787 5786 5786 5785 5785 5786 5784 5783 5781 5780 5779 5778 5776 5774 5772 5770 5769 5767 5766 5765 5763 5760 5758 5756 5754 5752 5750 5748 5746 5744 5742 5740 5738 5737
5797 5795 5793 5792 5792 5792 5791 5790 5788 5786 5784 5784 5785 5785 5785 5784 5784 5782 5781 5779 5778 5777 5775 5772 5771 5769 5767 5766 5764 5762 5760 5757 5755 5753 5751 5749 5748 5746 5744 5742 5740 5738 5737
5796 5794 5793 5792 5791 5790 5789 5788 5786 5786 5785 5784 5784 5785 5785 5785 5785 5783 5781 5780 5778 5777 5775 5773 5771 5768 5767 5765 5763 5761 5758 5756 5754 5752 5750 5749 5747 5745 5743 5741 5739 5738 5736
5795 5793 5791 5791 5790 5788 5787 5786 5785 5783 5782 5783 5779 5778 5781 5784 5783 5782 5781 5779 5778 5776 5775 5773 5770 5768 5766 5763 5761 5758 5756 5754 5752 5750 5749 5747 5746 5744 5742 5740 5739 5737 5735
5795 5794 5790 5788 5788 5787 5785 5784 5782 5779 5780 5781 5775 5769 5766 5770 5775 5780 5778 5777 5776 5775 5773 5771 5768 5766 5764 5762 5759 5757 5755 5753 5750 5748 5747 5745 5744 5742 5741 5739 5738 5736 5734
5793 5791 5790 5788 5787 5785 5783 5782 5781 5778 5775 5777 5777 5769 5760 5757 5763 5771 5773 5774 5773 5771 5770 5768 5766 5763 5762 5759 5757 5755 5752 5750 5748 5746 5744 5743 5742 5740 5739 5737 5736 5735 5733
5792 5790 5789 5787 5785 5784 5782 5781 5781 5779 5776 5772 5773 5773 5769 5766 5757 5756 5763 5768 5769 5767 5766 5766 5763 5761 5759 5757 5754 5752 5749 5747 5745 5743 5741 5740 5739 5737 5736 5735 5734 5732 5731
5791 5789 5787 5785 5783 5782 5780 5779 5778 5777 5775 5772 5769 5768 5766 5765 5762 5753 5750 5755 5759 5761 5762 5761 5759 5757 5756 5754 5752 5749 5746 5744 5742 5740 5738 5737 5735 5734 5733 5732 5731 5730 5728
5789 5788 5786 5784 5782 5780 5778 5777 5776 5775 5773 5771 5769 5767 5763 5759 5755 5752 5747 5747 5748 5753 5756 5756 5755 5754 5752 5751 5748 5745 5743 5741 5738 5736 5734 5733 5731 5730 5729 5728 5727 5726 5725
5786 5785 5785 5781 5779 5778 5777 5775 5773 5772 5770 5768 5766 5764 5763 5760 5758 5753 5747 5744 5743 5747 5749 5750 5750 5749 5748 5746 5743 5740 5738 5736 5733 5732 5730 5728 5726 5725 5724 5723 5722 5721 5720
5785 5784 5782 5779 5777 5775 5774 5772 5770 5768 5767 5765 5764 5762 5759 5758 5756 5752 5747 5741 5736 5737 5739 5741 5744 5744 5742 5741 5738 5735 5732 5730 5729 5727 5725 5723 5721 5720 5719 5718 5717 5716 5715
5783 5781 5779 5776 5774 5773 5770 5768 5765 5764 5763 5761 5759 5757 5755 5754 5752 5750 5747 5742 5733 5726 5726 5731 5734 5737 5737 5735 5732 5729 5727 5725 5724 5723 5721 5719 5717 5715 5714 5712 5711 5711 5710
5779 5777 5775 5772 5770 5768 5766 5764 5762 5761 5759 5757 5755 5752 5750 5749 5747 5746 5743 5740 5736 5728 5722 5725 5727 5730 5730 5728 5726 5723 5721 5721 5720 5718 5716 5714 5712 5710 5709 5707 5706 5705 5705
5775 5773 5770 5767 5765 5763 5761 5759 5757 5756 5754 5752 5750 5747 5745 5744 5741 5739 5737 5734 5731 5726 5718 5720 5722 5723 5722 5720 5718 5717 5717 5717 5715 5713 5711 5710 5708 5706 5704 5702 5700 5700 5699
5772 5769 5766 5764 5761 5759 5757 5755 5753 5751 5749 5747 5745 5742 5739 5738 5735 5733 5730 5727 5725 5723 5717 5712 5714 5715 5715 5715 5713 5712 5711 5712 5711 5709 5707 5705 5704 5701 5699 5697 5695 5694 5693
5768 5765 5762 5759 5757 5755 5752 5750 5748 5747 5745 5743 5740 5737 5734 5731 5728 5726 5724 5721 5719 5718 5715 5710 5708 5709 5709 5709 5707 5706 5705 5705 5706 5704 5702 5700 5699 5697 5695 5693 5691 5689 5688
5763 5760 5758 5755 5753 5750 5748 5745 5743 5742 5740 5738 5736 5733 5729 5726 5723 5720 5718 5715 5713 5710 5708 5704 5702 5701 5701 5701 5699 5696 5695 5696 5696 5698 5697 5695 5694 5692 5691 5689 5687 5684 5682
5758 5755 5752 5750 5748 5745 5743 5740 5738 5737 5734 5732 5730 5728 5725 5722 5719 5715 5713 5709 5707 5703 5700 5697 5694 5692 5691 5689 5688 5688 5686 5688 5689 5690 5688 5689 5688 5686 5685 5683 5681 5679 5677
5751 5749 5746 5743 5740 5739 5736 5734 5732 5731 5729 5726 5723 5722 5719 5717 5714 5710 5707 5704 5701 5696 5692 5688 5685 5683 5682 5681 5681 5680 5679 5677 5677 5682 5680 5680 5682 5680 5680 5679 5677 5674 5672
5744 5741 5739 5736 5733 5731 5728 5726 5725 5723 5722 5720 5717 5715 5713 5712 5708 5703 5701 5698 5696 5693 5689 5684 5680 5678 5676 5676 5674 5672 5671 5669 5669 5673 5672 5671 5673 5672 5672 5673 5671 5668 5667
5737 5734 5732 5730 5727 5724 5721 5718 5717 5716 5715 5713 5712 5709 5705 5702 5700 5696 5694 5691 5689 5687 5684 5681 5678 5676 5674 5672 5670 5667 5665 5665 5666 5667 5667 5662 5664 5663 5665 5664 5664 5662 5661
5730 5727 5725 5722 5719 5715 5712 5710 5708 5707 5707 5706 5705 5702 5699 5695 5692 5689 5686 5683 5681 5679 5679 5676 5674 5672 5669 5667 5664 5660 5658 5656 5655 5657 5659 5655 5655 5654 5654 5655 5656 5655 5654
5723 5721 5718 5715 5712 5708 5704 5702 5699 5699 5698 5697 5697 5695 5692 5688 5685 5681 5678 5675 5672 5671 5670 5669 5667 5666 5664 5661 5659 5655 5652 5648 5647 5647 5650 5647 5645 5644 5643 5646 5646 5647 5647